Wind_Speed
33 33 34 35 35 35 36 35 35 35 35 35 34 33 32 31 32 32 33 33 33 32 32 33 34 35 35 36 36 35 36 37 37 38 38 40 41 41 41 42 44 44 43
33 33 34 35 35 35 35 35 34 34 33 32 32 32 31 31 32 32 32 31 31 31 31 30 32 34 34 34 34 34 34 35 35 36 36 38 38 39 39 40 40 40 40
32 33 34 34 34 34 34 33 32 31 31 30 30 30 30 31 31 31 30 29 29 29 30 30 31 31 32 31 31 32 33 33 33 34 34 34 35 36 37 37 37 37 38
32 33 33 34 34 33 32 31 30 29 29 28 28 28 29 30 30 30 29 29 29 28 29 29 30 29 29 30 30 31 30 31 31 32 32 32 32 32 34 34 34 34 35
30 31 31 32 31 30 29 28 28 28 27 27 27 27 28 28 28 27 27 28 27 27 28 28 28 27 27 28 27 27 27 28 29 29 29 29 29 29 30 31 33 33 35
29 30 30 30 28 27 27 27 27 26 26 26 26 26 26 25 25 26 26 26 26 27 28 27 26 26 26 25 26 26 26 27 27 27 26 27 27 28 29 31 32 32 32
28 28 28 27 26 26 26 26 26 26 26 26 26 25 25 25 25 25 25 24 24 26 26 25 24 24 23 24 25 25 26 26 26 26 26 26 27 28 29 30 30 30 29
27 27 26 25 25 25 25 26 25 25 26 26 25 25 25 25 25 25 24 24 24 24 24 24 23 23 23 23 24 24 24 25 25 26 26 26 26 26 27 28 28 28 29
26 25 24 24 24 25 25 25 25 25 25 25 25 25 25 25 24 24 24 24 24 23 23 22 22 22 22 23 23 24 25 25 26 26 26 27 27 27 27 27 27 27 27
24 24 24 24 23 24 24 24 24 24 24 24 24 24 25 24 23 23 24 24 23 22 22 22 21 22 22 23 24 25 26 26 26 26 26 27 27 27 27 27 27 27 26
24 24 24 24 23 23 23 23 23 23 24 23 24 24 24 24 24 24 24 23 22 21 21 21 21 22 22 23 25 25 26 26 26 26 26 25 25 25 25 25 25 26 25
24 23 23 22 22 21 21 22 22 22 22 23 24 23 23 23 22 22 22 22 22 22 22 21 21 22 22 23 24 25 26 25 25 25 24 24 23 23 23 24 23 23 24
21 21 21 21 20 20 21 21 22 22 22 22 22 22 22 22 21 22 21 22 22 23 22 22 22 23 23 23 24 25 24 24 24 23 23 22 22 22 22 22 22 21 21
21 21 21 21 21 20 21 21 20 21 21 22 22 22 22 22 22 23 23 23 23 23 23 23 23 23 23 24 24 24 23 23 22 22 21 21 21 21 20 20 20 20 20
21 20 20 20 20 20 21 21 20 21 21 22 23 23 23 23 24 24 24 24 24 24 24 23 24 23 24 24 23 23 22 22 22 21 21 21 20 20 19 19 19 20 20
20 19 19 20 20 20 21 21 21 22 21 22 23 23 24 24 25 25 25 24 24 24 24 24 24 24 24 24 23 22 22 22 21 20 20 20 20 19 19 19 19 19 20
19 20 20 21 21 20 21 21 21 22 22 23 23 23 23 24 25 25 25 25 24 24 24 24 24 24 24 23 22 22 22 21 21 20 20 19 20 20 19 19 19 19 19
20 21 21 21 21 21 21 21 22 22 22 23 23 24 24 24 24 24 24 24 23 23 23 23 24 24 23 22 21 21 21 20 20 19 20 20 20 20 19 19 18 18 18
22 22 22 22 23 23 23 23 23 23 23 24 24 24 25 25 24 24 24 24 23 23 23 24 24 23 22 21 20 20 20 20 19 19 20 20 19 19 19 18 18 18 17
23 23 24 24 24 24 24 24 24 25 25 25 25 25 25 25 25 25 25 25 24 24 24 24 24 23 21 21 20 20 19 19 19 20 20 20 19 19 18 17 17 16 15
24 24 24 23 23 24 25 25 25 26 26 26 26 26 26 26 26 25 25 25 26 25 25 24 23 22 21 20 20 20 19 19 19 20 20 19 19 18 16 15 15 14 12
25 25 24 24 24 24 24 25 25 26 26 26 26 26 26 26 26 26 26 26 26 25 24 23 22 21 20 20 20 19 19 19 19 18 18 18 18 16 14 14 13 12 11
25 24 24 24 25 25 25 25 25 26 26 26 26 26 26 25 25 26 26 25 24 23 22 21 20 19 19 19 19 19 18 18 18 17 17 16 15 14 13 12 11 10 10
25 25 24 25 25 25 25 26 25 25 25 25 26 26 25 25 25 25 24 24 23 22 21 20 19 18 17 18 18 18 17 17 16 15 15 14 13 12 11 10 9 8 8
25 25 26 26 26 26 26 25 25 25 25 25 25 25 25 24 24 24 24 24 22 21 20 19 18 18 18 18 17 16 16 15 14 14 13 12 11 10 9 9 8 7 7
26 26 26 26 26 26 26 25 25 25 26 26 25 25 24 24 24 23 23 21 20 20 19 18 18 18 18 17 16 15 14 14 13 12 11 10 9 8 8 7 7 7 7
Wind_Direction
280 281 283 284 285 284 284 285 285 286 287 288 288 288 288 288 288 288 286 283 280 278 278 277 276 275 274 272 272 272 274 274 273 272 273 274 276 275 275 275 275 274 274
281 282 284 284 285 285 284 284 284 284 285 288 288 287 287 288 289 288 287 285 282 277 279 281 280 278 275 272 272 273 276 275 275 275 277 277 277 277 277 276 276 275 275
280 282 283 284 286 285 284 282 283 283 284 287 288 288 288 289 290 290 288 284 281 281 282 282 282 278 275 272 273 275 277 275 276 278 281 280 279 279 279 277 277 276 277
281 282 284 285 286 285 284 281 281 282 285 288 290 290 291 289 289 290 287 286 286 286 286 285 284 278 275 274 276 277 277 277 278 281 282 282 282 281 281 279 277 278 280
284 285 287 288 287 285 283 280 281 283 285 287 289 290 292 292 291 291 289 288 287 289 287 285 285 281 277 276 277 278 279 281 282 283 283 284 284 283 283 282 281 283 283
285 286 288 289 287 283 281 280 280 283 284 285 287 289 291 293 294 292 290 289 288 289 289 287 286 281 278 276 278 280 282 285 285 286 286 287 286 285 286 286 286 286 286
285 287 288 288 286 282 279 280 281 283 283 284 285 288 290 293 293 292 291 293 292 291 289 286 284 281 278 279 280 282 285 286 287 287 287 287 287 286 287 288 287 286 288
286 287 287 288 286 282 279 279 281 282 282 283 282 286 289 291 293 293 292 295 295 293 292 288 285 282 279 280 282 284 286 288 287 287 288 288 287 289 290 289 287 287 288
286 286 286 288 287 284 282 281 282 283 283 282 281 284 287 289 292 294 294 295 294 293 292 289 285 281 281 283 284 286 287 287 287 287 289 289 290 290 290 290 291 291 292
284 285 285 287 287 286 285 283 283 283 283 282 281 283 286 288 292 294 294 294 294 293 291 289 285 283 284 287 287 287 287 287 287 287 289 290 290 288 285 287 291 294 296
282 284 284 285 285 284 286 286 283 283 283 283 283 283 285 286 288 290 292 294 295 292 290 289 286 285 286 288 290 290 289 289 289 289 290 291 291 290 289 289 290 293 295
281 283 285 284 283 283 285 285 285 285 285 283 284 285 287 287 287 289 291 293 292 291 290 289 287 287 289 291 292 291 291 291 291 289 290 290 291 291 291 291 292 294 296
279 283 285 285 284 284 287 287 285 284 284 284 284 286 288 287 286 287 288 290 291 291 289 289 288 289 289 290 292 292 292 291 290 289 290 290 290 291 291 292 293 296 299
280 282 285 286 285 284 287 289 287 284 283 284 285 286 287 286 285 285 286 288 289 289 288 289 290 290 289 290 291 292 293 292 290 289 290 290 290 292 293 294 295 297 299
280 281 284 285 284 284 285 286 285 284 284 283 285 284 284 284 285 286 288 289 290 289 289 290 290 291 290 290 290 291 291 292 291 290 290 289 289 292 294 295 296 298 301
278 280 281 283 285 284 284 286 288 286 284 284 285 285 286 286 286 288 290 290 290 289 290 293 293 292 291 290 289 289 289 290 291 291 289 288 289 293 294 293 296 297 299
277 277 279 282 283 283 282 284 286 287 286 286 287 288 289 290 289 289 289 290 289 289 291 293 294 294 292 291 289 288 289 290 289 289 289 288 289 292 293 293 295 296 297
276 279 281 283 282 283 283 285 287 289 289 289 289 291 291 292 292 291 290 291 291 290 291 292 294 293 292 291 290 289 289 289 288 287 288 288 289 290 292 293 293 295 297
277 280 283 285 285 286 286 287 289 290 289 289 289 290 290 291 290 291 292 292 291 290 290 291 293 292 291 290 289 289 288 288 287 288 289 289 289 289 290 291 292 294 293
275 280 282 284 285 286 288 289 289 291 292 291 290 290 290 291 291 291 291 291 290 290 290 291 291 291 289 288 287 287 287 286 286 287 290 291 289 288 289 290 290 290 290
274 279 281 283 285 286 288 288 289 290 293 294 292 291 290 290 291 290 289 289 290 290 289 289 288 287 287 286 286 287 286 286 287 287 289 290 290 289 287 287 286 286 286
272 276 279 281 283 286 289 290 289 291 293 292 291 290 289 289 289 289 289 289 288 288 287 287 286 284 283 284 283 283 285 286 287 288 289 289 289 287 285 285 285 282 278
272 275 279 281 282 284 286 288 289 290 291 291 290 291 290 289 289 289 288 288 288 286 285 284 284 282 282 283 282 283 284 286 286 287 288 289 287 285 282 282 283 280 275
272 274 277 280 282 283 285 286 288 289 290 291 291 291 291 290 289 288 288 288 287 284 282 282 281 279 279 281 283 285 285 285 284 283 285 285 285 283 279 278 278 275 268
272 275 278 280 281 282 282 284 286 288 289 290 291 291 291 291 290 290 289 288 286 282 280 279 275 274 276 279 281 281 282 282 281 279 279 281 281 276 273 269 264 258 249
272 275 278 280 282 282 282 284 286 289 291 291 291 292 291 291 291 291 290 288 285 282 278 275 270 270 273 276 276 276 276 276 275 275 276 276 273 268 263 255 247 239 232
Height
5653 5651 5649 5646 5643 5640 5637 5635 5632 5630 5627 5625 5622 5619 5616 5613 5610 5607 5604 5602 5600 5599 5598 5597 5597 5596 5595 5596 5596 5596 5596 5596 5596 5597 5596 5595 5594 5593 5593 5592 5591 5590 5590
5644 5641 5639 5636 5633 5630 5627 5625 5623 5620 5618 5616 5613 5611 5608 5606 5603 5600 5597 5595 5593 5592 5591 5590 5589 5587 5587 5587 5587 5587 5587 5587 5587 5587 5587 5586 5585 5583 5582 5582 5581 5580 5579
5634 5632 5629 5626 5623 5620 5617 5615 5613 5611 5610 5608 5606 5603 5601 5599 5596 5593 5590 5589 5587 5585 5584 5583 5581 5580 5579 5579 5579 5579 5579 5578 5578 5577 5577 5576 5575 5573 5572 5572 5571 5570 5569
5625 5622 5620 5617 5614 5611 5608 5605 5604 5603 5602 5601 5599 5597 5594 5592 5589 5586 5584 5582 5581 5579 5577 5575 5574 5572 5572 5572 5572 5572 5571 5570 5570 5569 5568 5568 5566 5564 5563 5563 5562 5561 5560
5616 5613 5611 5607 5604 5601 5599 5598 5597 5596 5595 5594 5592 5590 5588 5585 5583 5580 5578 5576 5575 5573 5571 5569 5568 5566 5566 5565 5565 5565 5564 5563 5562 5561 5560 5559 5558 5556 5555 5554 5553 5553 5551
5608 5605 5602 5599 5596 5594 5592 5591 5591 5590 5589 5588 5586 5585 5583 5580 5578 5575 5573 5571 5569 5567 5565 5563 5562 5560 5560 5559 5559 5559 5558 5556 5555 5554 5553 5551 5550 5549 5547 5546 5545 5544 5542
5600 5597 5594 5591 5589 5587 5586 5585 5585 5584 5583 5582 5581 5579 5577 5575 5573 5570 5568 5565 5563 5561 5559 5557 5556 5555 5554 5554 5554 5553 5552 5550 5549 5547 5546 5545 5543 5542 5540 5538 5536 5534 5533
5593 5590 5587 5585 5583 5581 5580 5580 5579 5578 5577 5576 5575 5574 5572 5570 5567 5565 5562 5560 5558 5555 5553 5552 5551 5550 5549 5548 5548 5547 5546 5544 5543 5541 5540 5538 5537 5534 5532 5530 5528 5526 5525
5586 5584 5581 5579 5577 5576 5575 5574 5573 5572 5571 5570 5569 5568 5566 5564 5562 5560 5557 5555 5553 5551 5549 5547 5546 5545 5544 5543 5542 5541 5540 5538 5537 5535 5534 5531 5529 5527 5525 5523 5521 5519 5517
5580 5578 5576 5574 5572 5571 5570 5568 5567 5566 5566 5565 5564 5562 5561 5559 5557 5555 5552 5550 5548 5546 5544 5542 5541 5540 5539 5537 5536 5535 5534 5532 5531 5529 5527 5525 5522 5521 5519 5516 5514 5512 5510
5574 5572 5570 5568 5567 5566 5564 5563 5562 5561 5560 5559 5558 5557 5555 5553 5551 5549 5547 5545 5543 5541 5539 5538 5536 5535 5534 5532 5531 5529 5527 5525 5524 5522 5520 5518 5516 5513 5512 5510 5507 5505 5503
5568 5566 5565 5563 5562 5561 5559 5558 5556 5555 5554 5553 5552 5551 5549 5547 5546 5544 5542 5540 5538 5536 5535 5533 5531 5530 5528 5527 5525 5523 5521 5518 5517 5515 5513 5511 5509 5507 5505 5503 5501 5499 5496
5562 5561 5560 5558 5556 5555 5554 5553 5552 5550 5549 5548 5547 5546 5544 5542 5540 5539 5537 5535 5533 5531 5529 5528 5526 5524 5523 5521 5519 5516 5514 5512 5510 5508 5506 5505 5503 5501 5499 5497 5495 5493 5490
5557 5556 5555 5553 5552 5550 5549 5548 5547 5546 5545 5544 5542 5541 5539 5537 5535 5533 5532 5530 5528 5526 5524 5522 5520 5518 5516 5515 5513 5511 5508 5506 5504 5502 5501 5499 5497 5495 5493 5491 5489 5487 5485
5552 5551 5549 5548 5547 5546 5544 5543 5542 5541 5540 5539 5537 5536 5534 5532 5530 5528 5526 5524 5522 5520 5518 5517 5515 5513 5511 5509 5507 5505 5502 5501 5498 5497 5495 5493 5492 5490 5488 5486 5484 5482 5479
5546 5545 5544 5543 5542 5541 5539 5538 5536 5536 5534 5533 5532 5530 5528 5527 5524 5522 5520 5518 5516 5514 5512 5510 5508 5506 5504 5502 5500 5499 5497 5495 5493 5491 5489 5488 5486 5484 5483 5481 5479 5477 5475
5541 5540 5539 5537 5536 5535 5534 5533 5532 5530 5528 5527 5526 5524 5522 5520 5518 5516 5514 5512 5510 5508 5506 5504 5502 5500 5498 5496 5494 5493 5491 5489 5487 5485 5484 5482 5481 5479 5478 5476 5474 5472 5470
5535 5534 5533 5532 5530 5529 5528 5527 5526 5525 5523 5521 5519 5517 5516 5514 5512 5510 5508 5506 5504 5502 5500 5498 5496 5494 5492 5490 5488 5487 5485 5483 5481 5480 5478 5477 5475 5474 5472 5470 5468 5467 5465
5528 5528 5526 5525 5524 5523 5522 5521 5520 5518 5517 5515 5513 5511 5509 5507 5506 5504 5501 5499 5498 5496 5494 5492 5490 5487 5485 5484 5482 5481 5479 5478 5476 5474 5473 5471 5470 5468 5467 5465 5463 5461 5460
5521 5521 5520 5519 5518 5517 5516 5515 5513 5512 5510 5508 5506 5504 5502 5501 5499 5497 5495 5493 5491 5489 5487 5485 5483 5481 5479 5478 5477 5475 5474 5472 5471 5469 5467 5466 5464 5462 5461 5460 5458 5457 5455
5514 5514 5513 5512 5511 5510 5509 5507 5506 5504 5503 5501 5499 5497 5495 5493 5492 5490 5488 5486 5484 5482 5480 5478 5476 5475 5473 5472 5470 5469 5468 5466 5465 5463 5462 5460 5459 5457 5456 5454 5453 5452 5451
5506 5506 5505 5505 5504 5503 5501 5500 5498 5497 5495 5493 5492 5490 5487 5486 5484 5482 5481 5479 5477 5475 5473 5471 5469 5468 5467 5465 5464 5463 5462 5460 5459 5458 5456 5455 5453 5452 5451 5450 5449 5448 5447
5499 5498 5498 5497 5496 5495 5494 5492 5491 5489 5487 5485 5483 5481 5480 5478 5476 5474 5473 5471 5469 5467 5466 5464 5463 5462 5460 5459 5458 5457 5456 5454 5453 5452 5450 5449 5448 5447 5446 5446 5445 5444 5444
5491 5490 5490 5489 5488 5487 5486 5484 5483 5481 5479 5477 5475 5473 5472 5470 5468 5467 5465 5463 5461 5460 5458 5457 5456 5455 5454 5453 5452 5451 5450 5449 5447 5446 5445 5444 5444 5443 5442 5442 5441 5441 5441
5482 5482 5481 5481 5480 5479 5477 5476 5475 5473 5471 5469 5468 5466 5464 5462 5460 5459 5457 5455 5453 5452 5451 5450 5450 5449 5448 5447 5446 5445 5444 5443 5442 5442 5441 5440 5440 5439 5439 5439 5439 5439 5439
5474 5473 5473 5472 5471 5470 5469 5468 5466 5465 5463 5461 5459 5458 5456 5454 5452 5451 5449 5447 5446 5445 5444 5443 5443 5443 5442 5442 5441 5440 5439 5439 5438 5438 5437 5437 5436 5436 5436 5436 5436 5437 5438